AirNav   ProFlight Series 2 Aviation Headset
 
 801 users online  

MU90 Falcon Heliport
Lee's Summit, Missouri, USA

GOING TO LEE'S SUMMIT?


FAA INFORMATION EFFECTIVE 13 AUGUST 2020

Location

FAA Identifier: MU90
Lat/Long: 38-57-25.0240N 094-22-35.8210W
38-57.417067N 094-22.597017W
38.9569511,-94.3766169
(estimated)
Elevation: 971 ft. / 296 m (estimated)
Variation: 05E (1990)
From city: 3 miles N of LEES SUMMIT, MO
Time zone: UTC -5 (UTC -6 during Standard Time)
Zip code: 64064

Heliport Operations

Heliport use: Private use. Permission required prior to landing
Activation date: 10/1991
Control tower: no
ARTCC: KANSAS CITY CENTER
FSS: COLUMBIA FLIGHT SERVICE STATION
Attendance: MON-FRI 0830-1700
Segmented circle: no
Lights: FOR PERIMETER LGTS CALL 816-525-5722.

Heliport Communications

WX ASOS at LXT (0.3 nm NE): 124.175 (816-347-9807)
WX ASOS at MKC (14 nm NW): PHONE 816-329-2843
WX ASOS at OJC (18 nm W): 119.35 (913-780-6969)

Nearby radio navigation aids

VOR radial/distance  VOR name  Freq  Var
ANXr227/14.2NAPOLEON VORTAC114.0007E
MCIr135/25.9KANSAS CITY VORTAC113.2505E

Heliport Services

Runway Information

Helipad H1

Dimensions: 80 x 70 ft. / 24 x 21 m
Surface: concrete
Runway edge lights: PERI
Latitude: 38-57.417067N
Longitude: 094-22.597017W
Elevation: 971.0 ft.
Traffic pattern: leftleft

Heliport Ownership and Management from official FAA records

Ownership: Privately-owned
Owner: FALCON HELICOPTER INC
2451 N E DOUGLAS
LEE SUMMIT, MO 64064
Phone 816-525-5723
Manager: BOB SCHLOTZHAUER
12907 MEADOWLARK
LEE SUMMIT, MO 64063
Phone 816-525-5722

Additional Remarks

FOR CD CTC KANSAS CITY APCH AT 816-329-2710.

Instrument Procedures

There are no published instrument procedures at MU90.

Some nearby airports with instrument procedures:

KLXT - Lee's Summit Municipal Airport (0 nm NE)
3GV - East Kansas City Airport (8 nm NE)
KMKC - Charles B Wheeler Downtown Airport (14 nm NW)
KOJC - Johnson County Executive Airport (18 nm W)
KLRY - Lawrence Smith Memorial Airport (21 nm S)
 
Loc | Ops | Rwys | IFR | FBO | Links
Com | Nav | Svcs | Stats | Notes
Area around MU90 (Falcon Heliport)
 
Road maps at: MapQuest Bing Google
 
Aerial photo
No photo
 
Sectional chart

 
Airport distance calculator
Flying to Falcon Heliport? Find the distance to fly.

From to MU90

Sunrise and sunset
Times for 14-Aug-2020
 Local
(UTC-5)
 Zulu
(UTC)
Morning civil twilight06:0311:03
Sunrise06:3211:32
Sunset20:1201:12
Evening civil twilight20:4001:40

Current date and time
Zulu (UTC)  14-Aug-2020 11:48:09
Local (UTC-5)  14-Aug-2020 06:48:09
 
METAR
KLXT 141053Z AUTO 09004KT 10SM CLR 23/21 A2995 RMK AO2 SLP131 T02280206
KMKC 
14nm NW 
141054Z 06004KT 10SM CLR 23/21 A2993 RMK AO2 SLP127 T02330211
KOJC 
18nm W 
141053Z AUTO 08004KT 8SM CLR 22/22 A2994 RMK AO2 SLP127 T02220217
TAF
KMKC 
14nm NW 
140520Z 1406/1506 11005KT P6SM SKC
NOTAMs
Click for the latest NOTAMs
NOTAMs are issued by the DoD/FAA and will open in a separate window not controlled by AirNav.

 

 
 

Would you like to see your business listed on this page?

 If your business provides an interesting product or service to pilots, flight crews, aircraft, or users of the Falcon Heliport, you should consider listing it here.  To start the listing process, click on the button below
 
Add a business
 

Other Pages about Falcon Heliport

Update a link
 
Copyright © AirNav, LLC. All rights reserved. Privacy Policy  Contact